Location: Olsztyn
(53.7767°N, 20.4765°E)
Time: 04:02:58
(UTC+02:00)

Transit 4A - Visible Passes

Search period start: 19 July 2024 00:00
Search period end: 29 July 2024 00:00
Orbit: 870 x 973 km, 66.8° (Epoch: 18 July)

Date Brightness Start Highest point End Pass type
(mag) Time Alt. Az. Time Alt. Az. Time Alt. Az.
19 Jul 8.0 00:41:00 10° NW 00:47:00 76° NE 00:53:09 10° SE visible
19 Jul 8.8 02:27:50 10° NW 02:32:53 29° WSW 02:36:53 15° SSW visible
19 Jul 9.3 23:03:40 10° NW 23:09:06 35° NNE 23:14:39 10° E visible
20 Jul 7.8 00:50:03 10° NW 00:56:03 84° SW 01:01:21 14° SE visible
20 Jul 9.2 02:37:17 10° WNW 02:41:38 21° WSW 02:44:46 14° SW visible
20 Jul 8.9 23:12:42 10° NW 23:18:22 42° NNE 23:24:08 10° ESE visible
21 Jul 7.9 00:59:07 10° NW 01:05:02 65° SW 01:09:22 20° SSE visible
21 Jul 9.6 02:47:05 10° WNW 02:50:19 15° WSW 02:52:48 12° SW visible
21 Jul 9.8 21:35:02 10° NW 21:39:56 26° NNE 21:44:53 10° ENE visible
21 Jul 8.6 23:21:44 10° NW 23:27:34 51° NE 23:33:31 10° ESE visible
22 Jul 8.2 01:08:13 10° NW 01:13:57 48° WSW 01:17:29 23° S visible
22 Jul 9.6 21:44:14 10° NW 21:49:19 28° NNE 21:54:29 10° ENE visible
22 Jul 8.2 23:30:46 10° NW 23:36:43 65° NE 23:42:15 13° SE visible
23 Jul 8.6 01:17:25 10° NW 01:22:49 36° WSW 01:25:42 23° SSW visible
23 Jul 9.3 21:53:22 10° NW 21:58:39 32° NNE 22:04:03 10° E visible
23 Jul 7.9 23:39:47 10° NW 23:45:48 82° NE 23:50:32 18° SE visible
24 Jul 9.0 01:26:43 10° WNW 01:31:36 26° WSW 01:34:00 21° SW visible
24 Jul 9.1 22:02:26 10° NW 22:07:57 37° NNE 22:13:34 10° E visible
24 Jul 7.8 23:48:49 10° NW 23:54:50 78° SW 23:58:53 22° SSE visible
25 Jul 9.4 01:36:14 10° WNW 01:40:20 19° WSW 01:42:20 16° SW visible
25 Jul 8.7 22:11:28 10° NW 22:17:12 45° NE 22:23:02 10° ESE visible
25 Jul 8.0 23:57:53 10° NW 00:03:47 59° WSW 00:07:18 25° SSE visible
26 Jul 9.7 01:46:12 10° WNW 01:48:59 13° WSW 01:50:45 12° WSW visible
26 Jul 8.4 22:20:30 10° NW 22:26:23 55° NE 22:32:17 11° ESE visible
27 Jul 8.4 00:07:01 10° NW 00:12:42 44° WSW 00:15:45 25° S visible
27 Jul 8.1 22:29:30 10° NW 22:35:31 69° NE 22:40:47 14° SE visible
28 Jul 8.8 00:16:14 10° NW 00:21:31 33° WSW 00:24:15 23° SSW visible
28 Jul 7.9 22:38:32 10° NW 22:44:35 88° NE 22:49:20 18° SE visible
